Погода в Смидовиче

Погода в Смидовиче : погода сейчас, прогноз погоды и архив. Всё, что Вы хотите узнать о погоде в Смидовиче!

Поиск расширенной информации на нашем сайте:

Другие новости

Новости СМИ2

Главная страница сайта

Новости сайта

02.10.2013

Напоминаем, что на нашем новом сайте вы можете получить высокодетализированные прогнозы погоды по пунктам России, СНГ и мира (включающие важные для авиации метеовеличины, такие как направление и скорость ветра, видимость, явления погоды, количество и форма облачности, нижняя и верхняя граница облачности), а также ознакомиться с разнообразными материалами по авиационной метеорологии и подборкой полезных ссылок на эту тему.

Сайт Метеоцентр.Азия посвящён разработке технологий оптимизации авиаметеорологического обслуживания, включая проектирование и перспективное создание нескольких автоматизированных авиаметеорологических систем:
- система выпуска высокодетальных прогностических карт явлений погоды для нижнего воздушного пространства по России и ближнему зарубежью;
- система верификации прогнозов TAF (выпускаемых синоптиками официальных АМСГ РФ и ближнего зарубежья) и AUTOTAF (выпускаемых сайтом Метеоцентр.Азия) - выявление ошибок, онлайн-сопоставление с фактической погодой METAR, автоматическое внесение коррективов в прогнозы при резком отклонении фактической погоды от прогноза, подсчёт оправдываемости прогнозов по элементам и в целом;
- система обработки, анализа и отображения авиаметеорологической информации для применения провайдерами метеорологической информации.


Погода в Смидовиче - сегодня

Время (UTC), дата Ветер
(°,м/с) 
Видим.   Явления Облачность Т
(°С)
Тd
(°С)
f(%) Тe
(°С)
Pmin
(гПа)
dP
(гПа)
Po
(мм)
O2
(г/м3)
Тmin Tmax R s Состояние
почвы
03 20.01.17 200 (Ю) 20000 м    4/0 верхняя 
[Ci fib]
-18.4 -23.4 65 -19  1022.1  761  331           
06 20.01.17 230 (ЮЗ) 20000 м    4/0 верхняя 
[Ci fib]
-16.2 -22.7 57 -19  1022.2  0.2  762  328           
09 20.01.17 230 (ЮЗ) 20000 м    3/0 верхняя 
[Ci fib]
-21.3 -25.3 70 -24  1023.6  1.2  763  335    -15.8       
12 20.01.17 210 (ЮЗ) 20000 м    ясно 
-24.8 -27.7 77 -28  1024.4  0.7  763  340           
15 20.01.17 210 (ЮЗ) 20000 м    ясно 
-27.8 -30.8 76 -31  1025  0.5  763  344           
18 20.01.17 200 (Ю) 20000 м    ясно 
-30.6 -34.3 70 -31  1025.3  0.2  764  348           
21 20.01.17 200 (Ю) 20000 м    ясно 
-31.6 -35.4 69 -35  1026.1  0.8  764  350  -32.1      20  равномерный
сухой снег
100% 
00 21.01.17 тихо ()   20000 м    ясно 
-29.2 -32.9 70 -29  1027  765  347  -32.5         
03 21.01.17 220 (ЮЗ) 20000 м    ясно 
-21 -25.7 66 -24  1026.7  0.1  765  336           
06 21.01.17 220 (ЮЗ) 20000 м    8/0 верхняя 
[Ci fib]
-19 -25.5 56 -22  1025.7  -0.9  764  333           
09 21.01.17 тихо ()   20000 м    8/0 верхняя 
[Ci fib]
-24.1 -27.6 73 -24  1025.8  764  340    -18.6       
12 21.01.17 010 (С) 20000 м    6/0 верхняя 
[Ci fib]
-26.4 -29.4 76 -27  1026.1  0.3  764  343           
15 21.01.17 350 (С) 20000 м    4/0 верхняя 
[Ci fib]
-27.2 -30.3 75 -31  1025.8  -0.4  764  344           
18 21.01.17 360 (С) 20000 м    4/0 верхняя 
[Ci fib]
-27.7 -31 73 -31  1025.4  -0.4  764  344           
21 21.01.17 340 (С) 20000 м    4/0 верхняя 
[Ci fib]
-27.4 -30.8 73 -28  1024.9  -0.5  763  344  -29.9      20  равномерный
сухой снег
100% 
00 22.01.17 310 (СЗ) 20000 м    4/0 верхняя 
[Ci fib]
-25.3 -28.6 74 -26  1025.3  0.5  764  341           
03 22.01.17 350 (С) 20000 м    ясно 
-18.1 -22.8 67 -18  1024.6  -0.5  763  331           
06 22.01.17 220 (ЮЗ) 20000 м    ясно 
-16.2 -24.1 51 -19  1023.5  -1  763  328           
09 22.01.17 210 (ЮЗ) 20000 м    ясно 
-23.8 -27.3 73 -27  1023.7  0.1  763  338    -15.8       
12 22.01.17 220 (ЮЗ) 20000 м    ясно 
-25.2 -28.2 76 -28  1023.4  -0.3  762  340           
15 22.01.17 230 (ЮЗ) 20000 м    ясно 
-27.8 -30.8 76 -31  1023.5  762  344           
18 22.01.17 220 (ЮЗ) 20000 м    ясно 
-29.7 -33.3 71 -33  1023.4  0.1  762  347           
21 22.01.17 210 (ЮЗ) 20000 м    ясно 
-32.7 -36.7 67 -34  1023.3  -0.2  762  351  -32.7      20  равномерный
сухой снег
100% 
00 23.01.17 220 (ЮЗ) 20000 м    ясно 
-28.3 -32.1 70 -29  1024.1  0.9  763  345  -34.3         
03 23.01.17 220 (ЮЗ) 20000 м    ясно 
-20.7 -26.6 59 -21  1023.6  -0.3  763  334           
Время (UTC), дата Ветер
(°,м/с) 
Видим.   Явления Облачность Т
(°С)
Тd
(°С)
f(%) Тe
(°С)
Pmin
(гПа)
dP
(гПа)
Po
(мм)
O2
(г/м3)
Тmin Tmax R s Состояние
почвы

Для получения пояснительной информации подведите курсор к названию столбца.

ПОГОДА в Смидовиче - архив

Всё, что Вы хотите узнать о погоде в Смидовиче - удобно и подробно!

Выберите нужную дату (начиная с 1 января 2015* года) и нажмите кнопку "Найти".
Будут отображены архивные сводки погоды по пункту Смидович, начиная с указанной даты.


Отображать данные в формате CSV (для использования в таблицах Excel)


Внимание! Наш архив погоды предназначен исключительно для личного некоммерческого использования в познавательных целях. Если Вам необходимы официальные справки о состоянии погоды (для производственных, юридических, коммерческих и т.п. целей), обращайтесь в органы Росгидромета.

*Примечание: данная дата относится к архиву по метеостанциям СССР (Россия, СНГ, Балтия).
Архив по метеостанциям Зарубежной Европы и Азии (кроме Китая) хранится 10 дней, по другим регионам земного шара (Китай, Африка, Америка, Австралия, Океания) - 1 день.

Смидович - район местоположения метеостанции


Название, широта, долгота, высота метеостанции:
Смидович 48.6°ш. 133.8°д. 52 м над ур. моря [Российская Федерация]

Дополнительная информация

В oтличие oт бoльшинства пoгoдных сайтoв мы публикуем пoдрoбную метеoинфoрмацию в детальнoм прoфессиoнальнoм фoрмате.

Характеристики температуры и влажнoсти вoздуха измеряются на высoте 2 м в тени вдали oт зданий и деревьев.
Скoрoсть ветра измеряется на высoте 10 м (на урoвне рoста челoвека скoрoсть ветра ниже в 1.5-2 раза). Если метеoстанция нахoдится в гoрoде или в лесу, тo скoрoсть ветра занижена на 2-4 м/с пo сравнению с oткрытым местoм. Скoрoсть ветра над акватoриями крупных рек и oзёр, а также на вершинах хoлмoв на 2-5 м/с выше, чем в oбычных услoвиях.
Атмoсфернoе давление в разных тoчках местнoсти мoжет значительнo oтличаться oт давления на метеoстанции, в зависимoсти oт услoвий рельефа (при пoдъёме на 10 м давление пoнижается примернo на 1 мм рт.ст.).